Indianapolis, IN

2:34 PM EST on November 20, 2019 (GMT -0500)
Indianapolis International

Weather History for KIND - May, 2019

Change the Weather History Date:

Saturday, May 11, 2019

  Actual Average Record
Temperature  
Mean Temperature 50 °F 61 °F  
Max Temperature 60 °F 71 °F 89 °F (1896)
Min Temperature 40 °F 51 °F 31 °F (1945)
Degree Days  
Heating Degree Days 15 5  
Month to date heating degree days 58 71  
Since 1 July heating degree days 5309 5293  
Cooling Degree Days 0 2  
Month to date cooling degree days 3 12  
Year to date cooling degree days 4 27  
Moisture  
Dew Point 43 °F    
Average Humidity 72    
Maximum Humidity 93    
Minimum Humidity 51    
Precipitation  
Precipitation 0.23 in 0.17 in 1.95 in (1905)
Month to date precipitation 1.30 1.76  
Year to date precipitation 18.78 14.11  
Snow  
Snow 0.00 in 0.00 in T in (1966)
Month to date snowfall 0.0 0.0  
Since 1 July snowfall 19.4 25.9  
Snow Depth 0.00 in    
Sea Level Pressure  
Sea Level Pressure 29.97 in    
Wind  
Wind Speed 11 mph (NE)    
Max Wind Speed 22 mph    
Max Gust Speed 31 mph    
Visibility 9 miles    
Events Rain    
T = Trace of Precipitation, MM = Missing Value Source: NWS Daily Summary

Daily Weather History Graph

Daily Weather History Graph

Search for Another Location

Airport or City:

Astronomy

May. 11, 2019 Rise Set
Actual Time 6:34 AM EDT 8:48 PM EDT
Civil Twilight 6:04 AM EDT 9:19 PM EDT
Nautical Twilight 5:27 AM EDT 9:56 PM EDT
Astronomical Twilight 4:47 AM EDT 10:36 PM EDT
Moon 12:42 PM EDT (5/11) 2:29 AM EDT (5/11)
Length of Visible Light 15h 14m
Length of Day
14h 14m
Waxing Crescent, 46% of the Moon is Illuminated
May 11
Waxing Crescent
May 11
First Quarter
May 18
Full
May 26
Last Quarter
Jun 3
New

Hourly Weather History & Observations

Time (EDT) Temp. Windchill Dew Point Humidity Pressure Visibility Wind Dir Wind Speed Gust Speed Precip Events Conditions
12:54 AM 46.9 °F - 39.9 °F 77% 30.16 in 10.0 mi NNE 8.1 mph - N/A   Clear
1:54 AM 45.0 °F 40.6 °F 39.0 °F 80% 30.14 in 10.0 mi NE 8.1 mph - N/A   Clear
2:54 AM 44.1 °F 40.1 °F 37.9 °F 79% 30.13 in 10.0 mi NE 6.9 mph - N/A   Clear
3:54 AM 43.0 °F 40.3 °F 37.0 °F 80% 30.12 in 10.0 mi NE 4.6 mph - N/A   Clear
4:54 AM 42.1 °F 38.4 °F 37.0 °F 82% 30.10 in 10.0 mi NNE 5.8 mph - N/A   Clear
5:54 AM 41.0 °F 36.4 °F 37.0 °F 86% 30.10 in 10.0 mi NNE 6.9 mph - N/A   Partly Cloudy
6:54 AM 41.0 °F 35.8 °F 37.0 °F 86% 30.10 in 10.0 mi NNE 8.1 mph - N/A   Partly Cloudy
7:54 AM 44.1 °F 39.0 °F 37.9 °F 79% 30.10 in 10.0 mi NE 9.2 mph - N/A   Scattered Clouds
8:54 AM 48.9 °F - 39.0 °F 69% 30.09 in 10.0 mi East 11.5 mph - N/A   Scattered Clouds
9:54 AM 53.1 °F - 39.9 °F 61% 30.06 in 10.0 mi East 12.7 mph 23.0 mph N/A   Scattered Clouds
10:54 AM 55.9 °F - 41.0 °F 57% 30.04 in 10.0 mi East 11.5 mph - N/A   Mostly Cloudy
11:54 AM 57.9 °F - 42.1 °F 56% 30.02 in 10.0 mi East 10.4 mph 20.7 mph N/A   Mostly Cloudy
12:54 PM 60.1 °F - 42.1 °F 51% 29.99 in 10.0 mi East 12.7 mph 20.7 mph N/A   Mostly Cloudy
1:54 PM 59.0 °F - 43.0 °F 55% 29.98 in 10.0 mi East 6.9 mph - N/A   Overcast
2:54 PM 59.0 °F - 43.0 °F 55% 29.97 in 10.0 mi NE 8.1 mph - N/A   Overcast
3:54 PM 57.9 °F - 43.0 °F 58% 29.94 in 10.0 mi ENE 12.7 mph - 0.00 in   Overcast
4:54 PM 57.0 °F - 45.0 °F 64% 29.89 in 10.0 mi ENE 12.7 mph - 0.00 in Rain Light Rain
5:54 PM 54.0 °F - 48.9 °F 83% 29.86 in 10.0 mi NNE 15.0 mph - 0.01 in Rain Light Rain
6:54 PM 52.0 °F - 48.9 °F 89% 29.89 in 3.0 mi North 12.7 mph - 0.04 in Rain Rain
7:51 PM 51.8 °F - 48.2 °F 88% 29.88 in 4.0 mi NNE 13.8 mph - 0.07 in Rain Light Rain
7:54 PM 51.1 °F - 48.9 °F 92% 29.88 in 4.0 mi NNE 15.0 mph - 0.07 in Rain Light Rain
8:10 PM 51.1 °F - 48.9 °F 92% 29.87 in 4.0 mi NE 13.8 mph - 0.02 in Rain Light Rain
8:34 PM 50.0 °F - 48.9 °F 96% 29.87 in 5.0 mi NE 17.3 mph 25.3 mph 0.04 in Rain Light Rain
8:46 PM 50.0 °F - 48.0 °F 93% 29.86 in 7.0 mi NE 17.3 mph 25.3 mph 0.05 in Rain Light Rain
8:54 PM 50.0 °F - 46.9 °F 89% 29.87 in 7.0 mi NE 18.4 mph 27.6 mph 0.06 in Rain Light Rain
9:12 PM 48.9 °F - 46.0 °F 90% 29.86 in 7.0 mi NE 17.3 mph - 0.01 in Rain Light Rain
9:35 PM 48.0 °F - 45.0 °F 89% 29.85 in 10.0 mi ENE 21.9 mph 31.1 mph 0.02 in Rain Light Rain
9:54 PM 48.0 °F - 45.0 °F 89% 29.85 in 10.0 mi NE 16.1 mph - 0.03 in Rain Light Rain
10:48 PM 46.4 °F 40.7 °F 44.6 °F 93% 29.86 in 10.0 mi NNE 12.7 mph - 0.01 in Rain Light Rain
10:54 PM 46.9 °F - 45.0 °F 93% 29.87 in 10.0 mi NNE 13.8 mph - 0.01 in Rain Light Rain
11:37 PM 46.0 °F 40.2 °F 43.0 °F 89% 29.84 in 10.0 mi NNE 12.7 mph - 0.01 in Rain Light Rain
11:54 PM 45.0 °F 38.5 °F 43.0 °F 93% 29.84 in 10.0 mi NNE 13.8 mph - 0.01 in   Overcast